User: anonymous   Login
Location: Dover
(39.1580°N, 75.5250°W)
Time: 16:33:20
(UTC-04:00)
Language:

SeaSat 1 - Orbit

View from above orbital plane
View from above orbital plane
View from above satellite
View from above satellite

Ground track
Ground track

The orbit data is extracted from the following two-line orbital elements,

1 10967U 78064A   17142.90148775 -.00000016 +00000-0 +35586-4 0  9993
2 10967 108.0065 246.5916 0002750 256.9807 103.1030 14.43643976042729
Epoch (UTC): 22 May 2017 21:38:08
Eccentricity: 0.0002750
inclination: 108.0065°
perigee height: 744 km
apogee height: 748 km
right ascension of ascending node: 246.5916°
argument of perigee: 256.9807°
revolutions per day: 14.43643976
mean anomaly at epoch: 103.1030°
orbit number at epoch: 4272

The dashed part of the orbit path shows where the satellite is in the earth's shadow,  

DLR